This is the latest recevied weather packets stored in our database for station/object W4DHW-4. If no packets are shown the sender has not sent any weather packets the latest 10 day(s).
| Time | Temp. | Humidity | Pressure | Rain* | Wind** | Luminosity | Snow |
|---|---|---|---|---|---|---|---|
| 1777550166 | 10.56° C | 99% | 1011.3 hPa | 0 mm | - | 74 W/m² | - |
| 1777549862 | 10.56° C | 99% | 1011.5 hPa | 0 mm | - | 57 W/m² | - |
| 1777549559 | 10.56° C | 99% | 1011.4 hPa | 0 mm | - | 62 W/m² | - |
| 1777549255 | 10.56° C | 99% | 1011 hPa | 0 mm | - | 63 W/m² | - |
| 1777548951 | 10.56° C | 99% | 1010.6 hPa | 0 mm | - | 63 W/m² | - |
| 1777548649 | 10.56° C | 99% | 1010.7 hPa | 0 mm | - | 51 W/m² | - |
| 1777548345 | 10.56° C | 99% | 1010.5 hPa | 0 mm | - | 49 W/m² | - |
| 1777548043 | 10° C | 99% | 1010.5 hPa | 0 mm | - | 44 W/m² | - |
| 1777547738 | 10° C | 99% | 1010.2 hPa | 0 mm | - | 36 W/m² | - |
| 1777547434 | 10° C | 99% | 1010.3 hPa | 0 mm | - | 28 W/m² | - |
| 1777547133 | 10° C | 99% | 1010.1 hPa | 0 mm | - | 23 W/m² | - |
| 1777546829 | 10° C | 99% | 1010.5 hPa | 0 mm | - | 19 W/m² | - |
| 1777546526 | 10° C | 99% | 1010.3 hPa | 0 mm | - | 16 W/m² | - |
| 1777546223 | 10° C | 99% | 1010.4 hPa | 0 mm | - | 12 W/m² | - |
| 1777545920 | 10° C | 99% | 1010.3 hPa | 0 mm | - | 8 W/m² | - |
| 1777545616 | 10° C | 99% | 1009.9 hPa | 0 mm | - | 5 W/m² | - |
| 1777545313 | 10° C | 99% | 1010.1 hPa | 0 mm | - | 3 W/m² | - |
| 1777545011 | 10° C | 99% | 1010 hPa | 0 mm | - | 1 W/m² | - |
| 1777544708 | 10° C | 99% | 1009.9 hPa | 0 mm | - | 0 W/m² | - |
| 1777544402 | 10° C | 99% | 1009.7 hPa | 0 mm | - | 0 W/m² | - |
| 1777544099 | 10° C | 99% | 1009.8 hPa | 0 mm | - | 0 W/m² | - |
| 1777543797 | 10° C | 99% | 1009.8 hPa | 0 mm | - | 0 W/m² | - |
| 1777543492 | 10° C | 99% | 1009.4 hPa | 0 mm | - | 0 W/m² | - |
| 1777543189 | 10° C | 99% | 1009.4 hPa | 0 mm | - | 0 W/m² | - |
| 1777542885 | 10° C | 99% | 1009.3 hPa | 0 mm | - | 0 W/m² | - |
* Rain latest hour (hover to see other rain measurements)
** Current wind speed in m/s (hover to see current wind gust speed)